Tracking 31027 objects as of 19-Jul-2025
HD Live streaming from Space Station
objects crossing your sky now

NOAA 16 DEB

Track NOAA 16 DEB now!
10-day predictions


NORAD ID: 41140
Int'l Code: 2000-055BX
Perigee: 645.6 km
Apogee: 692.1 km
Inclination: 98.9 °
Period: 98.0 minutes
Semi major axis: 7039 km
RCS: Unknown
Launch date: September 21, 2000
Source: United States (US)
Launch site: AIR FORCE WESTERN TEST RANGE (AFWTR)

Note: This is SATELLITE DEBRIS
Your satellite tracking list
STARLINK-5088
Track 1 satellite(s)




NASA's NSSDC Master Catalog

Two Line Element Set (TLE):
1 41140U 00055BX  25199.94070424  .00016144  00000-0  26854-2 0  9999
2 41140  98.8533  12.7427 0033062 208.3485 151.5920 14.69806007503793
Source of the keplerian elements: AFSPC